Weather History for Westhampton Beach, NY

Change the Weather History Date:

Monday, March 24, 2014

  Actual Average Record
Temperature  
Mean Temperature 25 °F -  
Max Temperature 34 °F 47 °F 57 °F (2012)
Min Temperature 15 °F 30 °F 15 °F (2014)
Degree Days  
Heating Degree Days 40    
Moisture  
Dew Point 3 °F    
Average Humidity 38    
Maximum Humidity 61    
Minimum Humidity 27    
Precipitation  
Precipitation 0.00 in - - ()
Sea Level Pressure  
Sea Level Pressure 30.17 in    
Wind  
Wind Speed 13 mph (NW)    
Max Wind Speed 17 mph    
Max Gust Speed 31 mph    
Visibility 10 miles    
Events      
Averages and records for this station are not official NWS values.
T = Trace of Precipitation, MM = Missing Value Source: NWS Daily Summary

Daily Weather History Graph

Daily Weather History Graph

Search for Another Location

Airport:

Trip Planner

Search our weather history database for the weather conditions in past years. The results will help you decide how hot, cold, wet, or windy it might be!

Date:

Astronomy

Mar. 24, 2014 Rise Set
Actual Time 6:47 AM EDT 7:06 PM EDT
Civil Twilight 6:19 AM EDT 7:34 PM EDT
Nautical Twilight 5:47 AM EDT 8:06 PM EDT
Astronomical Twilight 5:14 AM EDT 8:39 PM EDT
Moon 2:16 AM EDT (3/24) 12:27 PM EDT (3/24)
Length of Visible Light 13h 14m
Length of Day
12h 19m
Last Quarter, 43% of the Moon is Illuminated
Mar 24
Last Quarter
Mar 30
New
Apr 7
First Quarter
Apr 15
Full
Apr 22
Last Quarter

Hourly Weather History & Observations

Time (EDT) Temp. Windchill Dew Point Humidity Pressure Visibility Wind Dir Wind Speed Gust Speed Precip Events Conditions
12:53 AM 27.0 °F 14.3 °F 6.1 °F 41% 30.10 in 10.0 mi NNW 17.3 mph 26.5 mph N/A   Clear
1:53 AM 25.0 °F 11.7 °F 6.1 °F 45% 30.12 in 10.0 mi NNW 17.3 mph 26.5 mph N/A   Clear
2:53 AM 24.1 °F 11.5 °F 3.9 °F 42% 30.13 in 10.0 mi North 15.0 mph 31.1 mph N/A   Clear
3:53 AM 21.9 °F 8.7 °F 3.9 °F 46% 30.14 in 10.0 mi NNW 15.0 mph 24.2 mph N/A   Clear
4:53 AM 21.0 °F 7.6 °F 1.9 °F 44% 30.17 in 10.0 mi NNW 15.0 mph 20.7 mph N/A   Clear
5:53 AM 19.9 °F 7.9 °F -0.9 °F 40% 30.19 in 10.0 mi North 11.5 mph 20.7 mph N/A   Clear
6:53 AM 19.9 °F 6.7 °F -0.9 °F 40% 30.21 in 10.0 mi North 13.8 mph 23.0 mph N/A   Clear
7:53 AM 21.9 °F 9.8 °F -0.0 °F 38% 30.23 in 10.0 mi North 12.7 mph 23.0 mph N/A   Clear
8:53 AM 24.1 °F 12.0 °F 1.9 °F 38% 30.23 in 10.0 mi NNW 13.8 mph 21.9 mph N/A   Clear
9:53 AM 25.0 °F 13.6 °F 1.0 °F 36% 30.23 in 10.0 mi North 12.7 mph 21.9 mph N/A   Clear
10:53 AM 27.0 °F 17.3 °F 1.9 °F 34% 30.23 in 10.0 mi North 10.4 mph 21.9 mph N/A   Clear
11:53 AM 28.0 °F 16.5 °F 3.0 °F 34% 30.21 in 10.0 mi NW 15.0 mph - N/A   Clear
12:53 PM 30.0 °F 19.5 °F 3.0 °F 32% 30.19 in 10.0 mi NNW 13.8 mph 19.6 mph N/A   Clear
1:53 PM 32.0 °F 23.0 °F 3.0 °F 29% 30.17 in 10.0 mi WNW 11.5 mph 23.0 mph N/A   Clear
2:53 PM 33.1 °F 23.9 °F 1.9 °F 27% 30.14 in 10.0 mi West 12.7 mph - N/A   Clear
3:53 PM 33.1 °F 23.9 °F 3.0 °F 28% 30.13 in 10.0 mi NW 12.7 mph - N/A   Clear
4:53 PM 33.1 °F 24.4 °F 3.0 °F 28% 30.11 in 10.0 mi West 11.5 mph 17.3 mph N/A   Clear
5:53 PM 33.1 °F 23.9 °F 3.0 °F 28% 30.12 in 10.0 mi NW 12.7 mph - N/A   Clear
6:53 PM 30.0 °F 25.2 °F 3.0 °F 32% 30.13 in 10.0 mi West 4.6 mph - N/A   Clear
7:53 PM 27.0 °F 23.0 °F 5.0 °F 39% 30.15 in 10.0 mi West 3.5 mph - N/A   Clear
8:53 PM 28.0 °F 21.7 °F 3.9 °F 36% 30.17 in 10.0 mi WSW 5.8 mph - N/A   Clear
9:53 PM 23.0 °F 17.0 °F 5.0 °F 46% 30.18 in 10.0 mi West 4.6 mph - N/A   Clear
10:53 PM 17.1 °F - 3.0 °F 54% 30.18 in 10.0 mi Calm Calm - N/A   Clear
11:53 PM 15.1 °F - 3.9 °F 61% 30.19 in 10.0 mi Calm Calm - N/A   Clear